Flag for Germany Weather past 2 weeks in Bad Salzuflen, North Rhine-Westphalia, Germany

Now
55 °F

Passing clouds.


Feels Like: 52 °F
Forecast: 52 / 65 °F
Wind: 15 mph from Southwest

Location: Bueckeburg

Current Time: Jul 29, 2015 at 7:03:20 AM

Latest Report: Jul 29, 2015 at 5:20 AM


Visibility: N/A

Pressure: 29.68 "Hg

Humidity: 72%

Dew point: 46 °F

Location of Bad SalzuflenLocation

Historic Weather in Bad Salzuflen — Graph

°F

Bad Salzuflen temperature yesterday

Maximum temperature yesterday: 66 °F (at 3:20 PM)
Minimum temperature yesterday: 57 °F (at 6:20 AM)
Average temperature yesterday: 61 °F

Past Weeks' High & Low Weather Summary

 TemperatureHumidityPressure
High90 °F (Jul 17, 3:20 PM)100% (Jul 16, 4:20 AM)30.12 "Hg (Jul 16, 4:20 AM)
Low52 °F (Jul 26, 6:20 AM)31% (Jul 17, 4:20 PM)29.47 "Hg (Jul 25, 12:20 PM)
Average66 °F75%29.87 "Hg
* Reported Jul 14 5:20 AM — Jul 29 5:20 AM, Bad Salzuflen, Weather by CustomWeather, © 2015

Note: Actual official high and low records may vary slightly from our data, if they occured in-between our weather recording intervals... More about our weather records

Advertising

Bad Salzuflen weather history for previous 24 hours

 ConditionsComfort  
Time TempWeatherWind HumidityBarometerVisibility
5:20 AM
Wed, Jul 29
55 °FPassing clouds.15 mph72%29.68 "HgN/A
4:20 AM57 °FPassing clouds.15 mph67%29.68 "HgN/A
3:20 AM57 °FPassing clouds.14 mph67%29.68 "HgN/A
2:20 AM59 °FPassing clouds.12 mph63%29.68 "HgN/A
1:20 AM59 °FSprinkles. Passing clouds.10 mph63%29.71 "HgN/A
12:20 AM61 °FPartly cloudy.13 mph63%29.71 "HgN/A
11:20 PM
Tue, Jul 28
61 °FPassing clouds.12 mph63%29.71 "HgN/A
10:20 PM61 °FPartly sunny.10 mph63%29.68 "HgN/A
9:20 PM61 °FBroken clouds.13 mph63%29.68 "HgN/A
8:20 PM61 °FBroken clouds.9 mph68%29.68 "HgN/A
7:20 PM63 °FScattered showers. Broken clouds.12 mph68%29.68 "HgN/A
6:20 PM61 °FBroken clouds.5 mph83%29.65 "HgN/A
5:20 PM59 °FSprinkles. Broken clouds.13 mph82%29.65 "HgN/A
4:20 PM64 °FBroken clouds.17 mph56%29.65 "HgN/A
3:20 PM66 °FBroken clouds.16 mph56%29.65 "HgN/A
2:20 PM63 °FPartly sunny.14 mph73%29.65 "HgN/A
1:20 PM59 °FSprinkles. Broken clouds.15 mph88%29.65 "Hg5 mi
12:20 PM63 °FScattered clouds.16 mph73%29.62 "HgN/A
11:20 AM61 °FPartly sunny.16 mph72%29.62 "HgN/A
10:20 AM61 °FPartly sunny.16 mph72%29.62 "HgN/A
9:20 AM59 °FPartly sunny.15 mph77%29.59 "HgN/A
8:20 AM59 °FPartly sunny.15 mph77%29.59 "HgN/A
7:20 AM57 °FPartly sunny.14 mph77%29.59 "HgN/A
Weather by CustomWeather, © 2015

See weather overviewHow to use our weather pages